Regional Weather Roundup
Issued by NWS Wakefield, VA

Home | Current Version | Previous Version | Graphics & Text | Print | Product List | Glossary On
Versions: 1 2 3 4 5 6 7 8 9 10 11 12 13 14 15 16 17 18 19 20 21 22 23 24 25 26 27 28 29 30 31 32 33 34 35 36 37 38 39 40 41 42 43 44 45 46 47 48 49 50
000
ASUS41 KAKQ 012015
RWRAKQ

REGIONAL WEATHER ROUNDUP
NATIONAL WEATHER SERVICE WAKEFIELD VA
400 PM EDT WED JUL 01 2015

Note: "fair" indicates few or no clouds below 12,000 feet with no
significant weather and/or obstructions to visibility. * = Denotes
station may not report precipitation (e.g., rain,snow,etc.),
thunder or fog.

VAZ042-051-052>054-056-012100-
NORTHERN VIRGINIA

CITY           SKY/WX    TMP DP  RH WIND       PRES   REMARKS
WASH NATIONAL  PTSUNNY   87  63  44 SW7       29.84F
DULLES         PTSUNNY   84  65  52 W9        29.84F
FORT BELVOIR   MOSUNNY   83  66  56 S6        29.85S
QUANTICO       MOSUNNY   85  63  47 W8        29.86F
FREDERICKSBRG* MOSUNNY   87  67  50 SW8       29.85F
STAFFORD*      MOSUNNY   84  65  53 W6        29.90S
WARRENTON      SUNNY     85  68  57 S9        29.85F
CULPEPER*      MOSUNNY   84  65  53 SW8       29.86F
MANASSAS*      SUNNY     84  64  51 SW8       29.85F
LEESBURG*      PTSUNNY   82  66  57 NW7G16    29.86F
WINCHESTER     MOSUNNY   84  59  42 W14G20    29.87S
FRONT ROYAL*   MOCLDY    82  64  54 W5        29.86S
LURAY*         FAIR      88  66  48 SW7       29.87F
$$

VAZ048-049-060>072-079>083-012100-
CENTRAL AND SOUTH CENTRAL VIRGINIA

CITY           SKY/WX    TMP DP  RH WIND       PRES   REMARKS
RICHMOND       CLOUDY    87  64  46 SW13G21   29.88F
CHESTERFIELD*  FAIR      84  61  45 W7        29.90S
PETERSBURG*    SUNNY     87  72  61 W9        29.90F
HANOVER        MOSUNNY   85  65  51 SW12      29.89F
TAPPAHANNOCK*  MOSUNNY   86  60  41 SW6       29.88S
QUINTON*       FAIR      85  68  57 SW7       29.88S
CHARLOTTSVILLE MOSUNNY   83  65  54 S9        29.88F
GORDONSVILLE*  FAIR      84  66  54 SW9       29.86F
ORANGE*        MOSUNNY   86  66  51 S12       29.88F
LOUISA*        SUNNY     84  66  54 SW7       29.87F
BUMPASS*       FAIR      83  67  59 SW6       29.87F
FARMVILLE*     MOSUNNY   87  64  46 SW5       29.88F
CREWE*         FAIR      86  65  50 SW3       29.90F
FORT PICKETT*  FAIR      85  67  55 SW9       29.91F
CHASE CITY*    FAIR      86  71  60 SW3       29.92F
CLARKSVILLE*   FAIR      86  66  51 SW8       29.91F
SOUTH HILL*    MOSUNNY   83  67  58 SW7       29.98F
LAWRENCEVILLE* NOT AVBL
EMPORIA*         N/A     82  64  54 S6        29.93R
$$

VAZ088>098-012100-
SOUTHEAST VIRGINIA

CITY           SKY/WX    TMP DP  RH WIND       PRES   REMARKS
NORFOLK        SUNNY     86  61  42 W8        29.89S
VIRGINIA BEACH PTSUNNY   89  65  44 SW13      29.88F
NORFOLK NAVAL  SUNNY     86  65  49 W9        29.90F
WEST POINT*    SUNNY     88  62  42 SW8       29.88F
SALUDA*        FAIR      85  68  57 W6        29.87S
NEWPORT NEWS   SUNNY     85  68  56 W14       29.89S
LANGLEY AFB    SUNNY     86  69  57 SW10      29.87F
FORT EUSTIS    SUNNY     85  69  57 SW7       29.87S
WILLIAMSBURG*  SUNNY     90  70  51 W9        29.89F HX  95
HR EXEC AP*    FAIR      86  70  58 SW6       29.91F
FRANKLIN*      SUNNY     84  67  56 SW8       29.91S
WAKEFIELD      SUNNY     86  67  52 SW7       29.90S
$$

VAZ020-022-025-037-045-012100-
WEST CENTRAL AND SOUTHWEST VIRGINIA

CITY           SKY/WX    TMP DP  RH WIND       PRES   REMARKS
STAUNTON*      MOSUNNY   85  63  47 W3        29.91F
WAYNESBORO*    FAIR      80  64  58 SW12      29.92F
HOT SPRINGS VA PTSUNNY   71  58  63 W10       30.04S
LYNCHBURG      SUNNY     83  63  50 SW7       29.93F
DANVILLE       SUNNY     86  66  51 VRB3      29.92F
SOUTH BOSTON*  FAIR      85  65  52 MISG      29.92F
MARTINSVILLE   MOSUNNY   86  63  44 SW3       29.96S
ROANOKE        MOSUNNY   84  61  45 W9        29.94F
BLACKSBURG     PTSUNNY   80  63  54 W6        30.01S
DUBLIN*        MOSUNNY   82  61  49 NW7       30.00S
MARION*        PTSUNNY   78  66  67 W9        30.04F
HILLSVILLE*    MOSUNNY   78  60  54 SW7       30.01F
RICHLANDS*     MOCLDY    73  66  78 SW9       30.03S
WISE*          CLOUDY    73  63  68 SW8       30.04F
ABINGDON*      CLOUDY    77  67  71 W8        30.01F
$$

MDZ021>025-VAZ099-100-012100-
SOUTHERN MARYLAND AND THE DELMARVA PENINSULA

CITY           SKY/WX    TMP DP  RH WIND       PRES   REMARKS
PATUXENT RIVER MOSUNNY   86  67  52 W10       29.85F
BAY BRIDGE APT   N/A     82  63  51 SW7       29.84F
LEONARDTOWN    MOSUNNY   82  64  54 SW7       29.87F
DOVER          MOSUNNY   83  67  58 W14       29.82S
GEORGETOWN     PTSUNNY   83  66  56 W7        29.86R
EASTON         SUNNY     86  66  51 SW12      29.89S
CAMBRIDGE      MOSUNNY   82  64  54 S7        29.85F
SALISBURY      SUNNY     84  62  47 W14       29.86S
OCEAN CITY     SUNNY     86  63  45 W9        29.85S
WALLOPS ISLAND MOSUNNY   84  67  56 W9        29.88R
ACCOMACK*      SUNNY     82  70  65 SW13      29.88S
$$

NCZ012>017-030>032-012100-
NORTH CENTRAL AND EASTERN NORTH CAROLINA

CITY           SKY/WX    TMP DP  RH WIND       PRES   REMARKS
ROANOKE RAPIDS FAIR      84  68  58 SW12      29.92S
RALEIGH        PTSUNNY   87  69  54 W8        29.93F
ELIZABETH CITY SUNNY     85  68  56 SW8       29.91F
AHOSKIE*       SUNNY     84  68  58 CALM      29.92S
EDENTON*         N/A     85  69  57 SW7       29.92F
CURRITUCK*     NOT AVBL
KILL DEVIL HLS SUNNY     89  67  47 NW3       29.91S
MANTEO         SUNNY     87  66  50 W8        29.92F
CAPE HATTERAS  SUNNY     82  74  76 SW14G22   29.94F
TARBORO*         N/A     88  65  45 SW7       29.93S
GOLDSBORO      SUNNY     85  71  62 SW9       29.92F
WASHINGTON     SUNNY     86  67  54 SW9       29.93F
GREENVILLE     SUNNY     88  66  48 SW7       29.94F
NEW BERN       SUNNY     86  72  62 W8        29.94F
WILMINGTON     MOSUNNY   87  70  56 W12       29.94F
$$

VAZ048-012100-
ELSEWHERE

CITY           SKY/WX    TMP DP  RH WIND       PRES   REMARKS
HARRISBURG PA  MOSUNNY   81  58  45 W12G21    29.83S
BALTIMORE      PTSUNNY   85  63  47 SW10      29.82F
ANNAPOLIS      MOSUNNY   84  65  52 SW7       29.83F
ANDREWS AFB    NOT AVBL
PHILADELPHIA   MOSUNNY   84  64  50 W16       29.81R
HENDERSON NC   SUNNY     85  62  47 SW9       29.93F
GREENSBORO     MOSUNNY   87  62  43 SW10G16   29.94F
ROCKY MOUNT    MOSUNNY   89  68  49 SW10      29.93R
$$

VAZ100-012100-
MARINE

STATION/POSITION TIME  TEMP    WIND        PRES    WAVE   SWELL
                       AIR SEA DIR/SP/G            HT/PER HT/PER
                 (UTC) (F)     (DEG/KT/KT) (MB)    (FT/S) (FT/S)
BRANDYWINE LGT   1900   81 76  270/ 11/ 12 1010.3F
CAPE MAY NJ      1900   81 79  210/  6/  7 1010.0F
LEWES DE         1900   84 71  260/ 11/ 13 1010.2F
15NM E FENWICK I 1950   75 74              1010.4F   4/ 7
OCEAN-CITY-INLET 1900   78 77  190/  8/ 12 1010.6F
WACHAPREAGUE VA  1900   83 83  260/  8/ 12 1011.8F
GOOSES REEF MD   2000   83 79  230/  6/  8 1011.8F
COVE POINT MD    1900   82     280/  5/  9 1011.8F
SOLOMONS ISLAND  1900      80                N/A
BISHOPS HEAD MD  1900   80     200/  9/ 10 1011.2F
PINEY POINT MD   1900          260/  7/  8   N/A
CAMBRIDGE MD     1900   83 79  250/  9/ 12 1010.8F
LEWISETTA VA     1900   83 80  280/ 11/ 13 1011.0F
RAPPAHANNOCK LGT 1900          210/ 11/ 12 1012.3F
STINGRAY PT      2000   84 81  240/  8/ 10 1011.5F   1
YORK RVR RNG VA  1900   83     270/  8/ 10 1011.4F
YORKTOWN VA      1900   83 81  280/ 11/ 14 1011.6F
JAMESTOWN VA     2000   84 83  240/ 10/ 12   N/A
DOMINION TERM VA 1900   83     250/ 10/ 13 1012.1F
KIPTOPEKE VA     1900      83  260/  9/ 13   N/A
CHES BAY BRIDGE  1900   81 78  260/ 12/ 13 1011.9F
CAPE HENRY VA    1900   83     300/ 10/ 12 1010.7F
CHESAPEAKE LGHT  1900   77      30/  2/  2 1013.1F
WILLOUBY STN VA  1900   82     230/ 11/ 12 1013.1F
CAPE HENRY BUOY  1928      81                N/A     3/ 8
1ST LANDING BUOY 2000      79              1011.9F   2/ 4
CAPE CHARLES BUO 1926      76                N/A     2/ 8   2/ 8
OFFSHORE WE BUOY 1911      78                N/A     4/ 8   3/ 8
64NM E OF VA BCH 1950   78 77  230/ 12/ 14 1012.3F   5/ 8   5/ 8
DUCK PIER NC     1900   82 61  240/ 11/ 14 1012.3F
44100 DUCK FRF   1924      78                N/A     2/ 8
44056 DUCK FRF   1911      72                N/A     2/ 8
OREGON INLET NC  1900   81 83  190/ 16/ 17 1013.5S
HATTERAS NC      1900   81 81  220/ 12/ 17 1013.9F
DIAMOND SHLS NC  1950   81 83  230/ 19/ 21 1013.7F   5/ 6   3/ 7
CAPE LOOKOUT NC  2000   82     230/ 13/ 17 1014.0F
$$


USA.gov is the U.S. government's official web portal to all federal, state and local government web resources and services.